Regional Weather Roundup
Issued by NWS

Home | Current Version | Previous Version | Graphics & Text | Print | Product List | Glossary Off
Versions: 1 2 3 4 5 6 7 8 9 10 11 12 13 14 15 16 17 18 19 20 21 22 23 24 25 26 27 28 29 30 31 32 33 34 35 36 37 38 39 40 41 42 43 44 45 46 47 48 49 50

000
ASUS43 KLSX 011307
RWRMO

WEATHER SUMMARY FOR MISSOURI
NATIONAL WEATHER SERVICE SPRINGFIELD MO
700 AM CST SUN MAR 01 2015

NOTE: "FAIR" INDICATES FEW OR NO CLOUDS BELOW 12,000 FEET WITH NO
       SIGNIFICANT WEATHER AND/OR OBSTRUCTIONS TO VISIBILITY.
       CURRENT SKY AND/OR WEATHER CONDITIONS ARE NOT AVAILABLE FOR
       CHILLICOTHE AND FARMINGTON.

MOZ001>031-035>038-043-044-053-054-011400-
...NORTHERN AND WESTERN MISSOURI...

CITY           SKY/WX    TMP DP  RH WIND       PRES   REMARKS
KANSAS CTY INT CLOUDY    21  20  96 CALM      30.36R
KANSAS C DTWN  CLOUDY    24  20  84 CALM      30.38R
LEE`S SUMMIT   CLOUDY    22  19  89 CALM      30.37R FOG
ST JOSEPH      CLOUDY    22  20  92 CALM      30.38S FOG
CHILLICOTHE      N/A     22  19  89 CALM      30.38S
KIRKSVILLE     LGT SNOW  20  19  96 CALM      30.35S VSB 3/4

$$
MOZ066>068-077>081-088>096-101>105-011400-
...SOUTHWEST MISSOURI...

CITY           SKY/WX    TMP DP  RH WIND       PRES   REMARKS
SPRINGFIELD    CLOUDY    28  26  92 CALM      30.32R FOG
JOPLIN         FOG       26  26 100 N5        30.35S VSB 1/2 WCI  20

$$
MOZ032>034-039>042-045>050-055>058-069>072-011400-
...CENTRAL MISSOURI...

CITY           SKY/WX    TMP DP  RH WIND       PRES   REMARKS
COLUMBIA       CLOUDY    24  22  91 NW3       30.36R FOG
JEFFERSON CITY CLOUDY    25  23  92 CALM      30.38R FOG
ROLLA          CLOUDY    25  24  96 CALM      30.31S FOG
SEDALIA        CLOUDY    24  21  88 NW3       30.36R FOG
WHITEMAN AFB   FLURRIES  22  20  92 N5        30.36R WCI  16
WARRENSBURG    CLOUDY    23  21  93 CALM      30.37S FOG
OSAGE BEACH    CLOUDY    27  25  93 CALM      30.35R

$$
MOZ051-052-059>065-011400-
...EAST CENTRAL MISSOURI...

CITY           SKY/WX    TMP DP  RH WIND       PRES   REMARKS
ST LOUIS INTL  FRZ DRZL  27  24  89 CALM      30.37S FOG
SPIRIT OF STL  CLOUDY    26  25  96 CALM      30.37S FOG
ST CHARLES     CLOUDY    25  24  96 CALM      30.37F FOG

$$
MOZ072>076-082>087-097>100-106>115-011400-
...SOUTH CENTRAL AND SOUTHEAST MISSOURI...

CITY           SKY/WX    TMP DP  RH WIND       PRES   REMARKS
CAPE GIRARDEAU FRZ RAIN  32  30  92 W3        30.38R
FARMINGTON     CLOUDY    30  28  93 CALM      30.37S
POPLAR BLUFF   CLOUDY    32  27  81 N3        30.35F
WEST PLAINS    CLOUDY    30  28  92 CALM      30.33S FOG

$$


USA.gov is the U.S. government's official web portal to all federal, state and local government web resources and services.